| time (UTC) | temp F | wind direction | speed MPH | gust MPH | rain 1hr in | rain 24hr in | rain mn in | humidity % | barometer mb |
| 20260508172015 | 63 | 295 | 9.0 | 16.0 | 0.00 | 0.00 | 0.00 | 26 | 1009.0 |
| 20260508171536 | 63 | 219 | 6.0 | 14.0 | 0.00 | 0.00 | 0.00 | 25 | 1009.0 |
| 20260508171019 | 63 | 277 | 3.0 | 12.0 | 0.00 | 0.00 | 0.00 | 27 | 1009.3 |
| 20260508170516 | 63 | 236 | 7.0 | 15.0 | 0.00 | 0.00 | 0.00 | 25 | 1009.4 |
| 20260508170030 | 62 | 175 | 7.0 | 15.0 | 0.00 | 0.00 | 0.00 | 27 | 1009.4 |
| 20260508165516 | 62 | 263 | 9.0 | 14.0 | 0.00 | 0.00 | 0.00 | 26 | 1009.4 |
| 20260508165016 | 62 | 317 | 3.0 | 15.0 | 0.00 | 0.00 | 0.00 | 27 | 1009.5 |
| 20260508164537 | 62 | 267 | 4.0 | 15.0 | 0.00 | 0.00 | 0.00 | 25 | 1009.6 |
| 20260508164015 | 61 | 229 | 7.0 | 15.0 | 0.00 | 0.00 | 0.00 | 28 | 1009.7 |
| 20260508163515 | 61 | 161 | 8.0 | 15.0 | 0.00 | 0.00 | 0.00 | 27 | 1009.8 |
| 20260508163034 | 61 | 278 | 6.0 | 13.0 | 0.00 | 0.00 | 0.00 | 27 | 1009.9 |
| 20260508162516 | 61 | 324 | 5.0 | 17.0 | 0.00 | 0.00 | 0.00 | 30 | 1009.9 |
| 20260508162016 | 60 | 257 | 6.0 | 17.0 | 0.00 | 0.00 | 0.00 | 31 | 1010.0 |
| 20260508161540 | 61 | 308 | 9.0 | 16.0 | 0.00 | 0.00 | 0.00 | 27 | 1010.1 |
| 20260508161016 | 61 | 248 | 7.0 | 14.0 | 0.00 | 0.00 | 0.00 | 29 | 1010.1 |
| 20260508160515 | 60 | 294 | 5.0 | 14.0 | 0.00 | 0.00 | 0.00 | 28 | 1010.1 |
| 20260508160037 | 61 | 257 | 8.0 | 12.0 | 0.00 | 0.00 | 0.00 | 27 | 1010.1 |
| 20260508155516 | 61 | 315 | 4.0 | 12.0 | 0.00 | 0.00 | 0.00 | 30 | 1010.1 |
| 20260508155016 | 61 | 302 | 4.0 | 12.0 | 0.00 | 0.00 | 0.00 | 29 | 1010.1 |
| 20260508154532 | 60 | 185 | 5.0 | 12.0 | 0.00 | 0.00 | 0.00 | 29 | 1010.1 |
| 20260508154015 | 60 | 207 | 6.0 | 11.0 | 0.00 | 0.00 | 0.00 | 33 | 1010.1 |
| 20260508153517 | 60 | 188 | 3.0 | 11.0 | 0.00 | 0.00 | 0.00 | 31 | 1010.1 |
| 20260508153037 | 59 | 252 | 4.0 | 11.0 | 0.00 | 0.00 | 0.00 | 30 | 1010.1 |
| 20260508152516 | 59 | 227 | 4.0 | 13.0 | 0.00 | 0.00 | 0.00 | 29 | 1010.2 |
| 20260508152018 | 60 | 280 | 3.0 | 13.0 | 0.00 | 0.00 | 0.00 | 32 | 1010.2 |
| 20260508151539 | 60 | 188 | 4.0 | 10.0 | 0.00 | 0.00 | 0.00 | 30 | 1010.2 |
| 20260508151017 | 59 | 164 | 3.0 | 10.0 | 0.00 | 0.00 | 0.00 | 30 | 1010.2 |
| 20260508150517 | 59 | 225 | 4.0 | 9.0 | 0.00 | 0.00 | 0.00 | 32 | 1010.2 |
| 20260508150031 | 59 | 223 | 5.0 | 10.0 | 0.00 | 0.00 | 0.00 | 31 | 1010.2 |
| 20260508145514 | 58 | 175 | 6.0 | 10.0 | 0.00 | 0.00 | 0.00 | 32 | 1010.3 |
| 20260508145019 | 58 | 146 | 5.0 | 10.0 | 0.00 | 0.00 | 0.00 | 34 | 1010.3 |
| 20260508144529 | 58 | 246 | 4.0 | 8.0 | 0.00 | 0.00 | 0.00 | 36 | 1010.3 |
| 20260508144016 | 57 | 205 | 5.0 | 11.0 | 0.00 | 0.00 | 0.00 | 36 | 1010.4 |
| 20260508143517 | 57 | 213 | 6.0 | 11.0 | 0.00 | 0.00 | 0.00 | 37 | 1010.4 |
| 20260508143031 | 57 | 242 | 6.0 | 12.0 | 0.00 | 0.00 | 0.00 | 39 | 1010.4 |
| 20260508142523 | 56 | 188 | 5.0 | 12.0 | 0.00 | 0.00 | 0.00 | 40 | 1010.4 |
| 20260508142016 | 56 | 182 | 6.0 | 11.0 | 0.00 | 0.00 | 0.00 | 43 | 1010.4 |
| 20260508141532 | 56 | 147 | 6.0 | 10.0 | 0.00 | 0.00 | 0.00 | 41 | 1010.5 |
| 20260508141017 | 56 | 162 | 5.0 | 10.0 | 0.00 | 0.00 | 0.00 | 42 | 1010.6 |
| 20260508140515 | 55 | 168 | 4.0 | 12.0 | 0.00 | 0.00 | 0.00 | 44 | 1010.5 |
| 20260508140033 | 55 | 221 | 4.0 | 12.0 | 0.00 | 0.00 | 0.00 | 44 | 1010.6 |
| 20260508135516 | 54 | 227 | 5.0 | 10.0 | 0.00 | 0.00 | 0.00 | 45 | 1010.6 |
| 20260508135016 | 53 | 252 | 5.0 | 12.0 | 0.00 | 0.00 | 0.00 | 46 | 1010.8 |
| 20260508134530 | 52 | 198 | 7.0 | 15.0 | 0.00 | 0.00 | 0.00 | 47 | 1010.7 |
| 20260508134015 | 52 | 273 | 7.0 | 15.0 | 0.00 | 0.00 | 0.00 | 47 | 1010.8 |
| 20260508133516 | 52 | 232 | 7.0 | 15.0 | 0.00 | 0.00 | 0.00 | 48 | 1010.8 |
| 20260508133047 | 51 | 167 | 6.0 | 13.0 | 0.00 | 0.00 | 0.00 | 49 | 1010.9 |
| 20260508132516 | 51 | 234 | 7.0 | 14.0 | 0.00 | 0.00 | 0.00 | 51 | 1011.0 |
| 20260508132019 | 50 | 167 | 7.0 | 13.0 | 0.00 | 0.00 | 0.00 | 52 | 1010.9 |
| 20260508131535 | 50 | 253 | 7.0 | 13.0 | 0.00 | 0.00 | 0.00 | 53 | 1011.1 |
| 20260508131015 | 49 | 207 | 7.0 | 12.0 | 0.00 | 0.00 | 0.00 | 54 | 1011.0 |
| 20260508130514 | 49 | 275 | 6.0 | 13.0 | 0.00 | 0.00 | 0.00 | 56 | 1011.0 |
| 20260508130030 | 49 | 232 | 6.0 | 13.0 | 0.00 | 0.00 | 0.00 | 57 | 1011.0 |
| 20260508125516 | 48 | 231 | 5.0 | 11.0 | 0.00 | 0.00 | 0.00 | 59 | 1011.0 |
| 20260508125020 | 48 | 198 | 4.0 | 7.0 | 0.00 | 0.00 | 0.00 | 60 | 1011.0 |
| 20260508124533 | 48 | 207 | 2.0 | 7.0 | 0.00 | 0.00 | 0.00 | 61 | 1011.0 |
| 20260508124015 | 47 | 233 | 2.0 | 8.0 | 0.00 | 0.00 | 0.00 | 62 | 1011.0 |
| 20260508123515 | 47 | 221 | 3.0 | 8.0 | 0.00 | 0.00 | 0.00 | 62 | 1011.1 |
| 20260508123031 | 46 | 212 | 3.0 | 7.0 | 0.00 | 0.00 | 0.00 | 64 | 1011.0 |
| 20260508122516 | 45 | 208 | 4.0 | 7.0 | 0.00 | 0.00 | 0.00 | 65 | 1011.0 |
| 20260508122012 | 45 | 194 | 2.0 | 6.0 | 0.00 | 0.00 | 0.00 | 67 | 1011.1 |
| 20260508121534 | 44 | 202 | 3.0 | 5.0 | 0.00 | 0.00 | 0.00 | 69 | 1011.0 |
| 20260508121016 | 43 | 200 | 2.0 | 5.0 | 0.00 | 0.00 | 0.00 | 70 | 1011.0 |
| 20260508120515 | 42 | 214 | 2.0 | 5.0 | 0.00 | 0.00 | 0.00 | 71 | 1010.9 |
| 20260508120030 | 42 | 236 | 1.0 | 5.0 | 0.00 | 0.00 | 0.00 | 73 | 1010.8 |
| 20260508115517 | 41 | 212 | 2.0 | 4.0 | 0.00 | 0.00 | 0.00 | 74 | 1010.9 |
| 20260508115015 | 40 | 194 | 2.0 | 4.0 | 0.00 | 0.00 | 0.00 | 74 | 1010.9 |
| 20260508114531 | 40 | 309 | 1.0 | 4.0 | 0.00 | 0.00 | 0.00 | 75 | 1010.8 |
| 20260508114016 | 39 | 217 | 2.0 | 5.0 | 0.00 | 0.00 | 0.00 | 76 | 1010.9 |
| 20260508113520 | 39 | 212 | 2.0 | 5.0 | 0.00 | 0.00 | 0.00 | 77 | 1010.9 |
| 20260508113035 | 38 | 231 | 2.0 | 6.0 | 0.00 | 0.00 | 0.00 | 77 | 1010.9 |
| 20260508112517 | 38 | 207 | 2.0 | 6.0 | 0.00 | 0.00 | 0.00 | 78 | 1010.9 |
| 20260508112015 | 37 | 219 | 2.0 | 4.0 | 0.00 | 0.00 | 0.00 | 78 | 1010.8 |
| 20260508111533 | 37 | 206 | 2.0 | 4.0 | 0.00 | 0.00 | 0.00 | 79 | 1010.8 |
| 20260508111015 | 37 | 224 | 2.0 | 4.0 | 0.00 | 0.00 | 0.00 | 82 | 1010.8 |
| 20260508110516 | 35 | 214 | 1.0 | 2.0 | 0.00 | 0.00 | 0.00 | 82 | 1010.8 |
| 20260508110029 | 36 | 231 | 1.0 | 2.0 | 0.00 | 0.00 | 0.00 | 80 | 1010.7 |
| 20260508105516 | 36 | 189 | 1.0 | 2.0 | 0.00 | 0.00 | 0.00 | 79 | 1010.6 |
| 20260508105015 | 36 | 225 | 0.0 | 2.0 | 0.00 | 0.00 | 0.00 | 80 | 1010.8 |
| 20260508104528 | 36 | 225 | 1.0 | 2.0 | 0.00 | 0.00 | 0.00 | 80 | 1010.7 |
| 20260508104016 | 36 | 0 | 0.0 | 2.0 | 0.00 | 0.00 | 0.00 | 80 | 1010.7 |
| 20260508103516 | 36 | 213 | 1.0 | 3.0 | 0.00 | 0.00 | 0.00 | 80 | 1010.7 |
| 20260508103035 | 36 | 209 | 2.0 | 3.0 | 0.00 | 0.00 | 0.00 | 80 | 1010.7 |
| 20260508102516 | 36 | 233 | 1.0 | 3.0 | 0.00 | 0.00 | 0.00 | 80 | 1010.7 |
| 20260508102016 | 36 | 227 | 1.0 | 3.0 | 0.00 | 0.00 | 0.00 | 80 | 1010.7 |
| 20260508101537 | 36 | 229 | 2.0 | 3.0 | 0.00 | 0.00 | 0.00 | 79 | 1010.6 |
| 20260508101015 | 36 | 221 | 2.0 | 3.0 | 0.00 | 0.00 | 0.00 | 79 | 1010.7 |
| 20260508100516 | 36 | 238 | 1.0 | 3.0 | 0.00 | 0.00 | 0.00 | 79 | 1010.6 |
| 20260508100034 | 36 | 254 | 1.0 | 3.0 | 0.00 | 0.00 | 0.00 | 79 | 1010.7 |
| 20260508095516 | 36 | 238 | 2.0 | 3.0 | 0.00 | 0.00 | 0.00 | 79 | 1010.8 |
| 20260508095018 | 36 | 257 | 1.0 | 3.0 | 0.00 | 0.00 | 0.00 | 79 | 1010.8 |
| 20260508094534 | 36 | 256 | 2.0 | 3.0 | 0.00 | 0.00 | 0.00 | 79 | 1010.9 |
| 20260508094019 | 36 | 241 | 1.0 | 3.0 | 0.00 | 0.00 | 0.00 | 79 | 1010.8 |
| 20260508093517 | 36 | 236 | 1.0 | 3.0 | 0.00 | 0.00 | 0.00 | 79 | 1010.8 |
| 20260508093032 | 36 | 231 | 1.0 | 3.0 | 0.00 | 0.00 | 0.00 | 79 | 1010.9 |
| 20260508092516 | 36 | 249 | 1.0 | 3.0 | 0.00 | 0.00 | 0.00 | 78 | 1010.9 |
| 20260508092016 | 36 | 243 | 1.0 | 3.0 | 0.00 | 0.00 | 0.00 | 78 | 1011.0 |
| 20260508091549 | 36 | 249 | 1.0 | 3.0 | 0.00 | 0.00 | 0.00 | 78 | 1011.0 |
| 20260508091016 | 36 | 230 | 2.0 | 3.0 | 0.00 | 0.00 | 0.00 | 78 | 1011.0 |
| 20260508090516 | 36 | 248 | 1.0 | 2.0 | 0.00 | 0.00 | 0.00 | 77 | 1011.1 |
| 20260508090036 | 36 | 248 | 1.0 | 2.0 | 0.00 | 0.00 | 0.00 | 78 | 1011.0 |
| 20260508085515 | 36 | 249 | 0.0 | 2.0 | 0.00 | 0.00 | 0.00 | 77 | 1011.1 |
| 20260508085016 | 36 | 249 | 1.0 | 2.0 | 0.00 | 0.00 | 0.00 | 77 | 1011.1 |
| 20260508084535 | 36 | 250 | 1.0 | 2.0 | 0.00 | 0.00 | 0.00 | 76 | 1011.1 |
| 20260508084021 | 35 | 247 | 1.0 | 2.0 | 0.00 | 0.00 | 0.00 | 76 | 1011.2 |
| 20260508083516 | 36 | 222 | 0.0 | 3.0 | 0.00 | 0.00 | 0.00 | 76 | 1011.1 |
| 20260508083038 | 36 | 222 | 0.0 | 3.0 | 0.00 | 0.00 | 0.00 | 75 | 1011.2 |
| 20260508082516 | 36 | 242 | 1.0 | 2.0 | 0.00 | 0.00 | 0.00 | 75 | 1011.2 |
| 20260508082016 | 36 | 245 | 1.0 | 2.0 | 0.00 | 0.00 | 0.00 | 75 | 1011.3 |
| 20260508081535 | 36 | 246 | 0.0 | 2.0 | 0.00 | 0.00 | 0.00 | 74 | 1011.2 |
| 20260508081016 | 36 | 246 | 0.0 | 2.0 | 0.00 | 0.00 | 0.00 | 74 | 1011.3 |
| 20260508080516 | 36 | 246 | 1.0 | 2.0 | 0.00 | 0.00 | 0.00 | 74 | 1011.2 |
| 20260508080038 | 36 | 263 | 1.0 | 1.0 | 0.00 | 0.00 | 0.00 | 74 | 1011.3 |
| 20260508075516 | 36 | 263 | 1.0 | 2.0 | 0.00 | 0.00 | 0.00 | 74 | 1011.3 |
| 20260508075021 | 36 | 261 | 0.0 | 2.0 | 0.00 | 0.00 | 0.00 | 75 | 1011.4 |
| 20260508074531 | 35 | 265 | 0.0 | 2.0 | 0.00 | 0.00 | 0.00 | 75 | 1011.4 |
| 20260508074016 | 35 | 265 | 0.0 | 2.0 | 0.00 | 0.00 | 0.00 | 75 | 1011.5 |
| 20260508073516 | 35 | 265 | 0.0 | 2.0 | 0.00 | 0.00 | 0.00 | 75 | 1011.5 |
| 20260508073034 | 35 | 265 | 1.0 | 2.0 | 0.00 | 0.00 | 0.00 | 76 | 1011.6 |
| 20260508072519 | 35 | 0 | 0.0 | 1.0 | 0.00 | 0.00 | 0.00 | 75 | 1011.6 |
| 20260508072016 | 35 | 265 | 1.0 | 1.0 | 0.00 | 0.00 | 0.00 | 74 | 1011.7 |
| 20260508071535 | 35 | 261 | 1.0 | 2.0 | 0.00 | 0.00 | 0.00 | 74 | 1011.7 |
| 20260508071021 | 36 | 271 | 0.0 | 2.0 | 0.00 | 0.00 | 0.00 | 73 | 1011.6 |
| 20260508070520 | 36 | 271 | 0.0 | 2.0 | 0.00 | 0.00 | 0.00 | 75 | 1011.7 |
| 20260508070031 | 35 | 280 | 1.0 | 3.0 | 0.00 | 0.00 | 0.00 | 75 | 1011.8 |
| 20260508065516 | 35 | 286 | 2.0 | 3.0 | 0.00 | 0.00 | 0.00 | 76 | 1011.8 |
| 20260508065017 | 36 | 235 | 0.0 | 2.0 | 0.00 | 0.00 | 0.00 | 74 | 1011.9 |
| 20260508064535 | 36 | 235 | 0.0 | 2.0 | 0.00 | 0.00 | 0.00 | 74 | 1012.0 |
| 20260508064016 | 36 | 272 | 1.0 | 5.0 | 0.00 | 0.00 | 0.00 | 74 | 1012.1 |
| 20260508063521 | 35 | 272 | 1.0 | 5.0 | 0.00 | 0.00 | 0.00 | 76 | 1011.9 |
| 20260508063055 | 35 | 300 | 2.0 | 5.0 | 0.00 | 0.00 | 0.00 | 75 | 1012.1 |
| 20260508062521 | 36 | 0 | 0.0 | 6.0 | 0.00 | 0.00 | 0.00 | 75 | 1012.1 |
| 20260508062016 | 35 | 292 | 1.0 | 6.0 | 0.00 | 0.00 | 0.00 | 77 | 1012.1 |
| 20260508061532 | 35 | 295 | 1.0 | 3.0 | 0.00 | 0.00 | 0.00 | 75 | 1012.2 |
| 20260508061016 | 36 | 185 | 1.0 | 3.0 | 0.00 | 0.00 | 0.00 | 75 | 1012.2 |
| 20260508060518 | 35 | 300 | 2.0 | 3.0 | 0.00 | 0.00 | 0.00 | 75 | 1012.3 |
| 20260508060030 | 36 | 210 | 1.0 | 3.0 | 0.00 | 0.00 | 0.00 | 76 | 1012.2 |
| 20260508055515 | 35 | 275 | 2.0 | 3.0 | 0.00 | 0.00 | 0.00 | 77 | 1012.4 |
| 20260508055015 | 36 | 205 | 1.0 | 2.0 | 0.00 | 0.00 | 0.00 | 77 | 1012.3 |
| 20260508054531 | 35 | 275 | 2.0 | 2.0 | 0.00 | 0.00 | 0.00 | 79 | 1012.4 |
| 20260508054016 | 35 | 250 | 1.0 | 2.0 | 0.00 | 0.00 | 0.00 | 79 | 1012.4 |
| 20260508053515 | 34 | 267 | 1.0 | 1.0 | 0.00 | 0.00 | 0.00 | 79 | 1012.5 |
| 20260508053043 | 35 | 262 | 1.0 | 1.0 | 0.00 | 0.00 | 0.00 | 79 | 1012.4 |
| 20260508052516 | 35 | 263 | 1.0 | 2.0 | 0.00 | 0.00 | 0.00 | 79 | 1012.4 |
| 20260508052020 | 35 | 263 | 1.0 | 2.0 | 0.00 | 0.00 | 0.00 | 79 | 1012.4 |
| 20260508051550 | 35 | 263 | 0.0 | 2.0 | 0.00 | 0.00 | 0.00 | 79 | 1012.4 |
| 20260508051016 | 35 | 263 | 1.0 | 2.0 | 0.00 | 0.00 | 0.00 | 79 | 1012.4 |
| 20260508050516 | 35 | 263 | 1.0 | 2.0 | 0.00 | 0.00 | 0.00 | 79 | 1012.3 |
| 20260508050031 | 35 | 263 | 0.0 | 1.0 | 0.00 | 0.00 | 0.00 | 79 | 1012.4 |
| 20260508045515 | 35 | 263 | 1.0 | 1.0 | 0.00 | 0.00 | 0.00 | 79 | 1012.3 |
| 20260508045017 | 35 | 263 | 1.0 | 2.0 | 0.00 | 0.00 | 0.00 | 78 | 1012.2 |
| 20260508044532 | 36 | 263 | 1.0 | 2.0 | 0.00 | 0.00 | 0.00 | 78 | 1012.2 |
| 20260508044016 | 36 | 257 | 1.0 | 2.0 | 0.00 | 0.00 | 0.00 | 77 | 1012.3 |
| 20260508043518 | 36 | 257 | 1.0 | 2.0 | 0.00 | 0.00 | 0.00 | 74 | 1012.3 |
| 20260508043031 | 36 | 0 | 0.0 | 2.0 | 0.00 | 0.00 | 0.00 | 72 | 1012.3 |
| 20260508042515 | 37 | 257 | 0.0 | 2.0 | 0.00 | 0.00 | 0.00 | 72 | 1012.3 |
| 20260508042019 | 37 | 257 | 0.0 | 2.0 | 0.00 | 0.00 | 0.00 | 72 | 1012.4 |
| 20260508041532 | 37 | 257 | 1.0 | 2.0 | 0.00 | 0.00 | 0.00 | 71 | 1012.3 |
| 20260508041015 | 37 | 257 | 0.0 | 2.0 | 0.00 | 0.00 | 0.00 | 71 | 1012.4 |
| 20260508040515 | 38 | 0 | 0.0 | 2.0 | 0.00 | 0.00 | 0.00 | 71 | 1012.4 |
| 20260508040034 | 37 | 257 | 1.0 | 2.0 | 0.00 | 0.00 | 0.00 | 72 | 1012.4 |
| 20260508035516 | 37 | 275 | 0.0 | 2.0 | 0.00 | 0.00 | 0.00 | 74 | 1012.2 |
| 20260508035018 | 36 | 275 | 1.0 | 2.0 | 0.00 | 0.00 | 0.00 | 75 | 1012.3 |
| 20260508034532 | 36 | 0 | 0.0 | 2.0 | 0.00 | 0.00 | 0.00 | 75 | 1012.2 |
| 20260508034016 | 36 | 0 | 0.0 | 2.0 | 0.00 | 0.00 | 0.00 | 75 | 1012.2 |
| 20260508033515 | 36 | 40 | 0.0 | 1.0 | 0.00 | 0.00 | 0.00 | 75 | 1012.2 |
| 20260508033034 | 36 | 40 | 0.0 | 2.0 | 0.00 | 0.00 | 0.00 | 74 | 1012.1 |
| 20260508032516 | 36 | 0 | 0.0 | 2.0 | 0.00 | 0.00 | 0.00 | 73 | 1012.2 |
| 20260508032016 | 37 | 0 | 0.0 | 2.0 | 0.00 | 0.00 | 0.00 | 73 | 1012.2 |
| 20260508031530 | 37 | 0 | 0.0 | 2.0 | 0.00 | 0.00 | 0.00 | 72 | 1012.2 |
| 20260508031016 | 37 | 0 | 0.0 | 2.0 | 0.00 | 0.00 | 0.00 | 71 | 1012.3 |
| 20260508030516 | 37 | 0 | 0.0 | 2.0 | 0.00 | 0.00 | 0.00 | 71 | 1012.3 |
| 20260508030036 | 37 | 38 | 1.0 | 2.0 | 0.00 | 0.00 | 0.00 | 70 | 1012.3 |
| 20260508025517 | 38 | 143 | 0.0 | 2.0 | 0.00 | 0.00 | 0.00 | 69 | 1012.1 |
| 20260508025016 | 39 | 0 | 0.0 | 2.0 | 0.00 | 0.00 | 0.00 | 69 | 1012.0 |
| 20260508024532 | 39 | 143 | 0.0 | 2.0 | 0.00 | 0.00 | 0.00 | 68 | 1011.9 |
| 20260508024016 | 39 | 143 | 0.0 | 2.0 | 0.00 | 0.00 | 0.00 | 69 | 1011.9 |
| 20260508023516 | 38 | 143 | 0.0 | 2.0 | 0.00 | 0.00 | 0.00 | 69 | 1011.8 |
| 20260508023034 | 39 | 144 | 0.0 | 2.0 | 0.00 | 0.00 | 0.00 | 68 | 1011.8 |
| 20260508022515 | 39 | 0 | 0.0 | 2.0 | 0.00 | 0.00 | 0.00 | 68 | 1011.7 |
| 20260508022016 | 39 | 144 | 1.0 | 2.0 | 0.00 | 0.00 | 0.00 | 67 | 1011.7 |
| 20260508021537 | 39 | 145 | 1.0 | 2.0 | 0.00 | 0.00 | 0.00 | 67 | 1011.7 |
| 20260508021018 | 39 | 147 | 1.0 | 3.0 | 0.00 | 0.00 | 0.00 | 66 | 1011.7 |
| 20260508020515 | 40 | 147 | 2.0 | 3.0 | 0.00 | 0.00 | 0.00 | 66 | 1011.6 |
| 20260508020030 | 40 | 142 | 2.0 | 4.0 | 0.00 | 0.00 | 0.00 | 65 | 1011.6 |
| 20260508015516 | 40 | 140 | 1.0 | 4.0 | 0.00 | 0.00 | 0.00 | 64 | 1011.6 |
| 20260508015015 | 40 | 136 | 1.0 | 3.0 | 0.00 | 0.00 | 0.00 | 64 | 1011.5 |
| 20260508014529 | 40 | 146 | 1.0 | 4.0 | 0.00 | 0.00 | 0.00 | 63 | 1011.5 |
| 20260508014015 | 40 | 140 | 1.0 | 4.0 | 0.00 | 0.00 | 0.00 | 63 | 1011.4 |
| 20260508013516 | 40 | 146 | 2.0 | 4.0 | 0.00 | 0.00 | 0.00 | 63 | 1011.3 |
| 20260508013030 | 40 | 137 | 0.0 | 3.0 | 0.00 | 0.00 | 0.00 | 62 | 1011.3 |
| 20260508012516 | 41 | 146 | 1.0 | 3.0 | 0.00 | 0.00 | 0.00 | 61 | 1011.3 |
| 20260508012016 | 41 | 126 | 2.0 | 3.0 | 0.00 | 0.00 | 0.00 | 61 | 1011.3 |
| 20260508011536 | 41 | 130 | 1.0 | 5.0 | 0.00 | 0.00 | 0.00 | 61 | 1011.2 |
| 20260508011015 | 41 | 147 | 2.0 | 5.0 | 0.00 | 0.00 | 0.00 | 60 | 1011.2 |
| 20260508010517 | 42 | 143 | 2.0 | 9.0 | 0.00 | 0.00 | 0.00 | 60 | 1011.1 |
| 20260508010041 | 42 | 144 | 3.0 | 9.0 | 0.00 | 0.00 | 0.00 | 59 | 1011.1 |
| 20260508005515 | 42 | 157 | 4.0 | 8.0 | 0.00 | 0.00 | 0.00 | 59 | 1011.0 |
| 20260508005016 | 42 | 151 | 3.0 | 7.0 | 0.00 | 0.00 | 0.00 | 59 | 1011.0 |
| 20260508004550 | 42 | 151 | 4.0 | 7.0 | 0.00 | 0.00 | 0.00 | 59 | 1011.0 |
| 20260508004016 | 42 | 139 | 1.0 | 4.0 | 0.00 | 0.00 | 0.00 | 59 | 1011.0 |
| 20260508003516 | 43 | 109 | 1.0 | 4.0 | 0.00 | 0.00 | 0.00 | 57 | 1011.0 |
| 20260508003028 | 44 | 102 | 2.0 | 9.0 | 0.00 | 0.00 | 0.00 | 56 | 1010.9 |
| 20260508002517 | 44 | 0 | 0.0 | 10.0 | 0.00 | 0.00 | 0.00 | 55 | 1010.9 |
| 20260508002016 | 44 | 148 | 6.0 | 10.0 | 0.00 | 0.00 | 0.00 | 54 | 1010.8 |
| 20260508001532 | 44 | 175 | 5.0 | 10.0 | 0.00 | 0.00 | 0.00 | 55 | 1010.8 |
| 20260508001016 | 44 | 160 | 4.0 | 9.0 | 0.00 | 0.00 | 0.00 | 56 | 1010.7 |
| 20260508000516 | 45 | 178 | 4.0 | 13.0 | 0.00 | 0.00 | 0.00 | 55 | 1010.7 |
| 20260508000038 | 45 | 165 | 7.0 | 13.0 | 0.00 | 0.00 | 0.00 | 54 | 1010.6 |
| 20260507235519 | 45 | 141 | 8.0 | 11.0 | 0.00 | 0.00 | 0.00 | 54 | 1010.6 |
| 20260507235015 | 45 | 130 | 5.0 | 12.0 | 0.00 | 0.00 | 0.00 | 54 | 1010.7 |
| 20260507234530 | 45 | 161 | 5.0 | 15.0 | 0.00 | 0.00 | 0.00 | 54 | 1010.6 |
| 20260507234018 | 45 | 159 | 7.0 | 15.0 | 0.00 | 0.00 | 0.00 | 53 | 1010.6 |
| 20260507233517 | 46 | 153 | 9.0 | 15.0 | 0.00 | 0.00 | 0.00 | 53 | 1010.6 |
| 20260507233036 | 46 | 148 | 6.0 | 13.0 | 0.00 | 0.00 | 0.00 | 53 | 1010.7 |
| 20260507232516 | 46 | 165 | 7.0 | 14.0 | 0.00 | 0.00 | 0.00 | 53 | 1010.7 |
| 20260507232020 | 46 | 143 | 8.0 | 14.0 | 0.00 | 0.00 | 0.00 | 54 | 1010.6 |
| 20260507231531 | 47 | 171 | 7.0 | 14.0 | 0.00 | 0.00 | 0.00 | 54 | 1010.7 |
| 20260507231016 | 47 | 170 | 6.0 | 12.0 | 0.00 | 0.00 | 0.00 | 54 | 1010.7 |
| 20260507230516 | 47 | 146 | 6.0 | 14.0 | 0.00 | 0.00 | 0.00 | 55 | 1010.7 |
| 20260507230047 | 47 | 113 | 7.0 | 14.0 | 0.00 | 0.00 | 0.00 | 55 | 1010.7 |
| 20260507225517 | 47 | 159 | 9.0 | 14.0 | 0.00 | 0.00 | 0.00 | 54 | 1010.8 |
| 20260507225016 | 47 | 159 | 8.0 | 14.0 | 0.00 | 0.00 | 0.00 | 55 | 1010.8 |
| 20260507224533 | 47 | 148 | 7.0 | 13.0 | 0.00 | 0.00 | 0.00 | 55 | 1010.9 |
| 20260507224018 | 47 | 162 | 7.0 | 14.0 | 0.00 | 0.00 | 0.00 | 57 | 1011.0 |
| 20260507223523 | 47 | 175 | 8.0 | 14.0 | 0.00 | 0.00 | 0.00 | 56 | 1011.0 |
| 20260507223106 | 47 | 149 | 8.0 | 15.0 | 0.00 | 0.00 | 0.00 | 57 | 1011.0 |
| 20260507222516 | 47 | 154 | 9.0 | 15.0 | 0.00 | 0.00 | 0.00 | 56 | 1011.0 |
| 20260507222016 | 48 | 153 | 6.0 | 17.0 | 0.00 | 0.00 | 0.00 | 55 | 1011.0 |
| 20260507221532 | 48 | 161 | 5.0 | 18.0 | 0.00 | 0.00 | 0.00 | 55 | 1011.0 |
| 20260507221016 | 47 | 167 | 10.0 | 18.0 | 0.00 | 0.00 | 0.00 | 56 | 1011.0 |
| 20260507220515 | 47 | 163 | 8.0 | 15.0 | 0.00 | 0.00 | 0.00 | 58 | 1011.0 |
| 20260507220032 | 48 | 141 | 8.0 | 15.0 | 0.00 | 0.00 | 0.00 | 58 | 1011.0 |
| 20260507215517 | 48 | 133 | 7.0 | 15.0 | 0.00 | 0.00 | 0.00 | 58 | 1011.0 |
| 20260507215015 | 48 | 167 | 7.0 | 15.0 | 0.00 | 0.00 | 0.00 | 57 | 1010.9 |
| 20260507214530 | 49 | 134 | 6.0 | 15.0 | 0.00 | 0.00 | 0.00 | 56 | 1010.9 |
| 20260507214019 | 48 | 107 | 9.0 | 17.0 | 0.00 | 0.00 | 0.00 | 56 | 1011.0 |
| 20260507213516 | 48 | 168 | 10.0 | 17.0 | 0.00 | 0.00 | 0.00 | 55 | 1011.0 |
| 20260507213030 | 49 | 135 | 7.0 | 16.0 | 0.00 | 0.00 | 0.00 | 56 | 1011.0 |
| 20260507212515 | 48 | 162 | 8.0 | 16.0 | 0.00 | 0.00 | 0.00 | 55 | 1011.0 |
| 20260507212017 | 49 | 174 | 7.0 | 17.0 | 0.00 | 0.00 | 0.00 | 54 | 1011.1 |
| 20260507211531 | 48 | 171 | 9.0 | 19.0 | 0.00 | 0.00 | 0.00 | 54 | 1011.0 |
| 20260507211015 | 47 | 153 | 11.0 | 19.0 | 0.00 | 0.00 | 0.00 | 52 | 1011.2 |
| 20260507210518 | 48 | 159 | 9.0 | 19.0 | 0.00 | 0.00 | 0.00 | 53 | 1011.3 |
| 20260507210036 | 48 | 148 | 10.0 | 19.0 | 0.00 | 0.00 | 0.00 | 53 | 1011.3 |
| 20260507205515 | 48 | 163 | 7.0 | 15.0 | 0.00 | 0.00 | 0.00 | 53 | 1011.3 |
| 20260507205015 | 47 | 160 | 8.0 | 15.0 | 0.00 | 0.00 | 0.00 | 53 | 1011.6 |
| 20260507204534 | 47 | 169 | 8.0 | 14.0 | 0.00 | 0.00 | 0.00 | 51 | 1011.4 |
| 20260507204015 | 47 | 154 | 5.0 | 10.0 | 0.00 | 0.00 | 0.00 | 51 | 1011.4 |
| 20260507203515 | 47 | 148 | 4.0 | 14.0 | 0.00 | 0.00 | 0.00 | 50 | 1011.3 |
| 20260507203036 | 47 | 175 | 5.0 | 14.0 | 0.00 | 0.00 | 0.00 | 50 | 1011.2 |
| 20260507202515 | 47 | 121 | 4.0 | 13.0 | 0.00 | 0.00 | 0.00 | 50 | 1011.2 |
| 20260507202018 | 46 | 138 | 7.0 | 18.0 | 0.00 | 0.00 | 0.00 | 50 | 1011.3 |
| 20260507201534 | 46 | 143 | 9.0 | 18.0 | 0.00 | 0.00 | 0.00 | 51 | 1011.5 |
| 20260507201020 | 46 | 129 | 7.0 | 19.0 | 0.00 | 0.00 | 0.00 | 51 | 1011.6 |
| 20260507200516 | 46 | 113 | 10.0 | 19.0 | 0.00 | 0.00 | 0.00 | 52 | 1011.5 |
| 20260507200048 | 47 | 140 | 7.0 | 16.0 | 0.00 | 0.00 | 0.00 | 54 | 1011.6 |
| 20260507195515 | 47 | 147 | 7.0 | 16.0 | 0.00 | 0.00 | 0.00 | 54 | 1011.7 |
| 20260507195015 | 47 | 146 | 9.0 | 17.0 | 0.00 | 0.00 | 0.00 | 53 | 1011.7 |
| 20260507194532 | 47 | 157 | 10.0 | 18.0 | 0.00 | 0.00 | 0.00 | 52 | 1011.7 |
| 20260507194016 | 48 | 125 | 9.0 | 18.0 | 0.00 | 0.00 | 0.00 | 51 | 1011.6 |
| 20260507193516 | 48 | 142 | 9.0 | 18.0 | 0.00 | 0.00 | 0.00 | 52 | 1011.6 |
| 20260507193043 | 47 | 193 | 7.0 | 16.0 | 0.00 | 0.00 | 0.00 | 51 | 1011.6 |
| 20260507192515 | 46 | 161 | 8.0 | 16.0 | 0.00 | 0.00 | 0.00 | 51 | 1011.7 |
| 20260507192016 | 47 | 179 | 7.0 | 14.0 | 0.00 | 0.00 | 0.00 | 51 | 1011.8 |
| 20260507191530 | 48 | 161 | 5.0 | 13.0 | 0.00 | 0.00 | 0.00 | 51 | 1011.7 |
| 20260507191015 | 48 | 165 | 4.0 | 12.0 | 0.00 | 0.00 | 0.00 | 51 | 1011.7 |
| 20260507190516 | 49 | 157 | 5.0 | 12.0 | 0.00 | 0.00 | 0.00 | 49 | 1011.5 |
| 20260507190036 | 52 | 150 | 4.0 | 12.0 | 0.00 | 0.00 | 0.00 | 42 | 1011.5 |
| 20260507185515 | 53 | 255 | 3.0 | 8.0 | 0.00 | 0.00 | 0.00 | 43 | 1011.4 |
| 20260507185015 | 52 | 271 | 3.0 | 7.0 | 0.00 | 0.00 | 0.00 | 42 | 1011.5 |
| 20260507184530 | 52 | 266 | 2.0 | 7.0 | 0.00 | 0.00 | 0.00 | 43 | 1011.6 |
| 20260507184017 | 52 | 234 | 3.0 | 11.0 | 0.00 | 0.00 | 0.00 | 43 | 1011.6 |
| 20260507183517 | 52 | 216 | 3.0 | 11.0 | 0.00 | 0.00 | 0.00 | 42 | 1011.8 |
| 20260507183037 | 53 | 259 | 3.0 | 9.0 | 0.00 | 0.00 | 0.00 | 43 | 1011.8 |
| 20260507182516 | 52 | 187 | 4.0 | 10.0 | 0.00 | 0.00 | 0.00 | 44 | 1011.9 |
| 20260507182016 | 51 | 265 | 5.0 | 10.0 | 0.00 | 0.00 | 0.00 | 44 | 1011.9 |
| 20260507181536 | 52 | 202 | 2.0 | 9.0 | 0.00 | 0.00 | 0.00 | 43 | 1012.0 |
| 20260507181019 | 51 | 281 | 4.0 | 9.0 | 0.00 | 0.00 | 0.00 | 46 | 1012.0 |
| 20260507180521 | 51 | 236 | 4.0 | 9.0 | 0.00 | 0.00 | 0.00 | 43 | 1012.1 |
| 20260507180030 | 51 | 246 | 5.0 | 12.0 | 0.00 | 0.00 | 0.00 | 44 | 1012.1 |
| 20260507175516 | 51 | 352 | 6.0 | 12.0 | 0.00 | 0.00 | 0.00 | 45 | 1012.2 |
| 20260507175016 | 51 | 345 | 5.0 | 10.0 | 0.00 | 0.00 | 0.00 | 44 | 1012.3 |
| 20260507174547 | 51 | 153 | 4.0 | 10.0 | 0.00 | 0.00 | 0.00 | 43 | 1012.3 |
| 20260507174017 | 51 | 249 | 4.0 | 10.0 | 0.00 | 0.00 | 0.00 | 45 | 1012.4 |
| 20260507173515 | 50 | 247 | 5.0 | 12.0 | 0.00 | 0.00 | 0.00 | 44 | 1012.5 |
| 20260507173037 | 50 | 236 | 6.0 | 14.0 | 0.00 | 0.00 | 0.00 | 45 | 1012.7 |
| 20260507172516 | 51 | 275 | 5.0 | 14.0 | 0.00 | 0.00 | 0.00 | 45 | 1012.7 |